Lid_Strength_Index
4 4 4 3 3 3 3 3 2 2 1 1 1 1 1 1 1 2 4 3 5 8 7 5 5 7 7 8 10 9 8 8 9 12 13 14 15 13 13 12 13 14 15 16 15 17 18 8 8 12 10 7 7 7
3 3 3 2 2 2 1 1 1 1 1 1 0 0 0 0 0 1 4 2 1 5 6 3 3 3 4 4 6 7 8 8 8 11 11 13 15 16 13 16 10 14 12 14 13 13 8 7 8 7 6 7 7 7
2 2 1 1 1 0 0 0 0 0 1 0 0 0 0 0 -0 0 2 2 3 6 7 7 6 3 1 2 2 8 7 6 7 6 9 10 13 12 16 13 11 9 8 12 12 9 8 7 7 6 6 6 6 6
2 1 1 1 0 0 1 0 0 0 0 0 0 0 0 0 -0 0 2 1 3 5 9 8 3 4 1 2 2 3 4 4 5 6 8 10 13 9 13 10 12 10 9 10 11 9 8 7 6 6 6 5 5 5
1 1 1 0 1 0 0 0 0 1 1 0 0 0 0 0 -0 1 1 2 1 5 10 8 4 3 2 2 3 3 4 6 7 9 10 11 9 10 10 10 11 9 10 12 12 8 9 8 6 6 6 6 5 6
1 1 1 1 0 1 0 1 0 1 0 0 0 0 0 0 0 2 5 2 1 2 7 10 5 5 3 3 4 5 5 6 6 8 10 8 7 8 12 13 9 8 8 7 9 6 6 6 6 5 6 6 5 5
1 1 1 0 1 0 0 0 0 0 0 0 0 0 0 0 1 4 6 4 1 2 7 10 10 5 4 4 5 5 4 6 7 8 9 9 9 8 13 13 9 9 9 7 8 6 7 7 7 6 6 6 6 6
1 1 1 1 1 1 0 1 1 1 0 0 0 0 0 0 1 3 2 2 2 4 6 11 10 8 6 9 9 5 7 7 7 8 8 9 8 9 13 12 11 10 9 8 9 8 8 6 7 8 8 7 9 11
2 2 2 2 1 1 1 1 1 1 0 1 1 1 1 3 5 4 1 1 1 5 11 13 14 13 7 8 8 8 7 11 7 10 10 9 12 16 14 13 12 12 11 10 8 9 9 10 11 12 12 12 13 15
2 2 2 2 2 1 1 1 1 1 1 1 2 5 8 5 2 2 4 6 7 6 8 12 11 12 8 10 10 11 11 11 12 10 8 12 15 13 13 12 13 12 11 10 11 11 11 11 13 14 14 14 15 16
2 2 2 2 2 2 2 2 1 1 1 4 6 7 4 2 4 6 10 10 10 12 10 11 11 10 8 12 10 12 13 12 14 13 12 15 18 16 14 14 14 13 12 12 12 12 12 13 14 15 16 16 17 17
2 2 2 2 2 2 2 2 2 4 5 4 5 4 6 6 10 11 13 12 12 12 10 12 11 9 9 7 9 9 12 11 15 11 15 19 17 15 15 15 15 15 15 15 15 15 15 16 16 16 16 17 17 17
2 2 2 2 2 2 2 2 2 2 2 4 7 9 10 12 17 17 15 13 12 11 11 10 10 10 9 9 10 10 12 13 11 16 20 19 16 16 16 16 17 16 16 16 16 16 16 16 16 16 17 18 18 18
3 3 3 3 3 3 3 3 3 4 6 11 13 18 18 19 16 16 15 14 12 11 12 12 11 11 10 11 11 13 13 13 17 21 22 18 17 16 16 16 16 17 17 18 18 18 18 19 19 18 18 19 19 20
3 3 4 4 3 4 4 4 5 8 11 14 15 19 19 15 15 14 14 13 12 11 12 11 11 11 12 14 14 14 18 21 20 22 20 18 16 16 17 16 17 18 19 19 19 19 19 19 20 20 19 19 19 19
3 3 4 4 4 3 4 6 8 9 12 15 16 19 18 19 18 18 16 15 12 13 12 12 13 14 17 17 19 20 21 23 22 19 18 18 18 19 18 18 18 18 18 18 19 19 19 19 20 20 19 20 20 19
4 5 4 3 4 5 5 8 10 12 15 18 19 20 20 21 19 16 15 15 13 13 15 15 19 19 16 18 21 20 23 22 21 20 19 19 19 19 19 19 19 19 19 20 19 18 19 18 18 19 20 20 19 19
6 5 4 3 3 5 7 8 11 13 16 16 19 17 17 18 19 18 16 15 15 14 16 19 17 21 22 22 23 22 21 19 19 19 20 20 20 20 19 20 19 19 19 20 20 20 20 20 20 21 19 19 19 19
5 5 5 4 5 8 11 11 11 15 15 17 17 16 18 18 17 16 15 15 15 16 17 19 23 23 23 21 22 21 20 20 21 20 20 19 19 19 20 20 20 20 20 19 20 20 21 21 21 20 20 20 20 19
5 5 5 5 5 9 12 12 10 13 16 16 17 18 18 18 17 18 17 17 18 18 21 23 23 22 20 19 19 19 18 18 19 21 21 20 18 18 19 19 19 19 20 20 20 20 20 20 21 21 21 21 22 22
7 8 7 7 9 9 11 12 12 12 13 15 15 17 18 17 19 20 20 17 20 21 22 21 21 19 18 17 17 16 16 16 17 18 19 20 18 18 19 19 20 20 21 22 23 22 21 22 21 21 24 27 26 23
10 8 11 9 12 12 12 11 12 12 13 14 15 15 18 20 21 20 18 21 21 20 20 20 18 17 17 17 17 16 17 17 17 18 18 18 20 20 20 21 21 21 22 23 23 26 24 22 22 22 23 25 23 23
9 10 13 14 16 17 17 12 15 13 17 17 16 18 20 22 19 17 21 19 20 19 18 17 17 16 17 17 17 17 17 18 20 20 21 21 22 24 22 22 21 23 22 21 20 22 23 24 25 27 26 25 26 26
10 14 16 19 18 20 19 20 16 17 18 19 20 21 21 22 19 23 23 20 17 16 17 18 18 19 19 19 20 19 19 19 20 21 21 21 22 22 22 22 21 21 21 20 22 25 24 28 26 26 29 27 30 31
18 19 19 21 18 20 22 22 21 19 23 21 22 23 22 19 24 25 24 21 21 21 21 19 19 20 22 24 23 21 19 19 21 22 21 19 21 21 22 21 21 20 21 23 27 30 30 30 30 30 29 31 28 31
23 19 17 19 20 18 20 23 23 23 23 22 21 20 22 25 27 26 22 24 22 24 25 28 23 22 21 20 22 22 21 19 20 22 21 20 20 25 26 27 27 25 23 28 27 28 27 29 30 29 30 28 29 31
22 19 15 14 16 17 20 20 18 21 22 23 22 23 27 31 30 23 20 21 21 23 20 21 20 20 21 21 20 20 20 20 20 20 19 19 19 21 25 28 27 23 25 28 30 30 30 30 29 30 32 33 33 31
19 20 23 23 22 20 25 25 25 25 24 19 22 29 30 29 26 22 22 21 21 19 20 20 20 20 20 21 22 23 23 22 20 19 19 20 22 25 25 25 23 20 25 26 29 31 31 32 32 32 33 32 32 30
22 22 21 26 25 24 23 25 24 21 19 22 29 28 24 21 24 21 21 20 21 21 24 23 26 25 24 24 26 27 28 23 24 28 28 29 26 23 26 29 27 29 30 27 22 23 23 26 30 30 28 28 26 28
21 21 24 28 27 25 23 25 27 27 22 24 21 20 21 21 18 20 19 19 23 27 28 26 25 25 28 29 31 27 29 34 32 27 28 29 26 25 28 30 29 30 33 31 31 29 24 29 28 31 31 31 31 30
19 22 24 24 24 24 26 27 21 22 25 26 28 27 27 24 22 20 20 24 24 26 24 26 26 31 26 29 31 32 30 29 33 31 27 26 28 30 31 32 33 31 28 30 33 33 32 31 31 32 33 32 32 33
23 27 27 26 24 22 23 24 27 28 30 29 30 32 29 29 29 27 22 25 24 25 27 28 26 28 31 32 34 33 28 29 31 31 30 32 33 34 34 33 33 33 33 33 35 34 34 32 31 30 30 30 30 32
23 22 27 26 25 26 24 23 25 24 26 29 26 26 27 28 29 25 22 24 25 24 26 28 30 31 29 28 29 30 29 30 30 23 26 27 29 29 34 36 36 36 34 35 36 35 33 33 34 35 36 36 36 36